Simultaneous Nadir Overpasses (SNOs) Predictions

Prediction of SNOs between GOES-16 and TERRA Satellite Orbit:

Table of predicted SNOs for the next 14.0 days since TLE Epoch: 2/19/2022
Index Date Time (GOES-16) GOES-16 Lat,Lon TERRA Lat,Lon Distance(km) Time Diff (sec)
1 02/21/2022 03:19:14 -0.04, -75.21 0.08, -74.52 77.33 80
2 02/23/2022 03:06:59 -0.04, -75.21 0.74, -71.57 414.28 80
3 02/23/2022 15:30:53 0.04, -75.24 0.39, -76.72 169.51 80
4 02/25/2022 15:15:58 0.04, -75.24 -0.28, -73.77 167.62 80
5 02/26/2022 03:40:01 -0.04, -75.22 -0.83, -78.96 424.69 80
6 02/28/2022 03:27:45 -0.04, -75.23 -0.21, -75.99 86.88 80
7 03/02/2022 03:12:49 -0.04, -75.25 0.41, -73.03 251.98 80
8 03/02/2022 15:34:04 0.04, -75.28 0.65, -78.19 331.50 80
9 03/04/2022 15:24:28 0.04, -75.31 0.02, -75.23 8.66 80
